TimeEST,TemperatureF,Dew PointF,Humidity,Sea Level PressureIn,VisibilityMPH,Wind Direction,Wind SpeedMPH,Gust SpeedMPH,PrecipitationIn,Events,Conditions,WindDirDegrees,DateUTC
12:15 AM,53.6,42.8,67,30.28,10.0,NNE,12.7,-,0.00,,Clear,20,2012-11-17 05:15:00
12:35 AM,51.8,42.8,71,30.29,10.0,NNE,10.4,-,0.00,,Clear,20,2012-11-17 05:35:00
12:55 AM,51.8,42.8,71,30.29,10.0,NNE,9.2,-,0.00,,Clear,30,2012-11-17 05:55:00
1:15 AM,51.8,42.8,71,30.30,10.0,NNE,8.1,-,0.00,,Clear,20,2012-11-17 06:15:00
1:35 AM,50.0,42.8,76,30.29,10.0,NNE,6.9,-,0.00,,Clear,30,2012-11-17 06:35:00
1:55 AM,50.0,41.0,71,30.29,10.0,NNE,6.9,-,0.00,,Clear,30,2012-11-17 06:55:00
2:15 AM,48.2,41.0,76,30.30,10.0,NNE,8.1,-,0.00,,Clear,30,2012-11-17 07:15:00
2:55 AM,48.2,41.0,76,30.29,10.0,North,8.1,-,0.00,,Clear,10,2012-11-17 07:55:00
3:15 AM,46.4,41.0,81,30.28,10.0,North,10.4,-,0.00,,Clear,360,2012-11-17 08:15:00
3:35 AM,46.4,41.0,81,30.28,10.0,North,6.9,-,0.00,,Clear,10,2012-11-17 08:35:00
3:55 AM,46.4,41.0,81,30.29,10.0,North,8.1,-,0.00,,Clear,10,2012-11-17 08:55:00
4:15 AM,46.4,39.2,76,30.28,10.0,North,9.2,-,0.00,,Clear,360,2012-11-17 09:15:00
4:35 AM,46.4,39.2,76,30.29,10.0,North,8.1,-,0.00,,Clear,10,2012-11-17 09:35:00
4:55 AM,44.6,39.2,81,30.29,10.0,North,5.8,-,0.00,,Clear,10,2012-11-17 09:55:00
5:15 AM,44.6,39.2,81,30.30,10.0,NNE,8.1,-,0.00,,Clear,20,2012-11-17 10:15:00
5:35 AM,44.6,39.2,81,30.31,10.0,North,8.1,-,0.00,,Clear,10,2012-11-17 10:35:00
5:55 AM,44.6,37.4,76,30.31,10.0,North,9.2,-,0.00,,Clear,10,2012-11-17 10:55:00
6:15 AM,44.6,37.4,76,30.30,10.0,North,9.2,-,0.00,,Clear,360,2012-11-17 11:15:00
6:35 AM,44.6,37.4,76,30.30,10.0,North,11.5,17.3,0.00,,Clear,10,2012-11-17 11:35:00
6:55 AM,44.6,37.4,76,30.31,10.0,North,12.7,-,0.00,,Clear,10,2012-11-17 11:55:00
7:15 AM,44.6,37.4,76,30.31,10.0,North,12.7,17.3,0.00,,Clear,10,2012-11-17 12:15:00
7:35 AM,44.6,37.4,76,30.32,10.0,North,11.5,18.4,0.00,,Clear,10,2012-11-17 12:35:00
7:55 AM,44.6,39.2,81,30.34,10.0,North,10.4,-,0.00,,Clear,10,2012-11-17 12:55:00
8:15 AM,46.4,39.2,76,30.34,9.0,North,8.1,-,0.00,,Clear,10,2012-11-17 13:15:00
8:35 AM,46.4,39.2,76,30.35,10.0,North,10.4,-,0.00,,Clear,10,2012-11-17 13:35:00
8:55 AM,46.4,39.2,76,30.34,9.0,North,12.7,16.1,0.00,,Clear,10,2012-11-17 13:55:00
9:15 AM,48.2,41.0,76,30.34,9.0,North,12.7,-,0.00,,Scattered Clouds,10,2012-11-17 14:15:00
9:35 AM,48.2,41.0,76,30.34,9.0,North,16.1,21.9,0.00,,Scattered Clouds,10,2012-11-17 14:35:00
9:55 AM,50.0,41.0,71,30.34,10.0,NNE,15.0,19.6,0.00,,Partly Cloudy,20,2012-11-17 14:55:00
10:15 AM,50.0,41.0,71,30.35,10.0,NNE,11.5,-,0.00,,Clear,20,2012-11-17 15:15:00
10:35 AM,51.8,41.0,67,30.36,10.0,North,12.7,-,0.00,,Partly Cloudy,10,2012-11-17 15:35:00
10:55 AM,53.6,41.0,62,30.34,10.0,NNE,12.7,-,0.00,,Scattered Clouds,30,2012-11-17 15:55:00
11:15 AM,53.6,41.0,62,30.34,10.0,NNE,12.7,-,0.00,,Partly Cloudy,20,2012-11-17 16:15:00
12:35 PM,57.2,42.8,59,30.32,10.0,NNE,13.8,19.6,0.00,,Partly Cloudy,30,2012-11-17 17:35:00
12:55 PM,55.4,42.8,63,30.30,10.0,North,11.5,-,0.00,,Partly Cloudy,360,2012-11-17 17:55:00
1:15 PM,55.4,44.6,67,30.29,10.0,North,11.5,-,0.00,,Partly Cloudy,10,2012-11-17 18:15:00
1:35 PM,55.4,44.6,67,30.29,10.0,North,12.7,-,0.00,,Scattered Clouds,10,2012-11-17 18:35:00
1:55 PM,55.4,44.6,67,30.29,10.0,NNE,15.0,20.7,0.00,,Scattered Clouds,20,2012-11-17 18:55:00
2:15 PM,55.4,44.6,67,30.29,10.0,NNE,10.4,-,0.00,,Partly Cloudy,20,2012-11-17 19:15:00
2:35 PM,55.4,44.6,67,30.30,10.0,NNE,8.1,-,0.00,,Partly Cloudy,20,2012-11-17 19:35:00
2:55 PM,55.4,44.6,67,30.30,10.0,NNE,9.2,-,0.00,,Clear,20,2012-11-17 19:55:00
3:15 PM,55.4,44.6,67,30.30,10.0,NNE,11.5,16.1,0.00,,Clear,20,2012-11-17 20:15:00
3:35 PM,55.4,44.6,67,30.31,10.0,NNE,11.5,18.4,0.00,,Mostly Cloudy,20,2012-11-17 20:35:00
3:55 PM,55.4,46.4,72,30.31,10.0,North,9.2,-,0.00,,Overcast,10,2012-11-17 20:55:00
4:15 PM,55.4,46.4,72,30.31,10.0,North,9.2,-,0.00,,Overcast,10,2012-11-17 21:15:00
4:35 PM,55.4,46.4,72,30.31,10.0,North,10.4,-,0.00,,Overcast,10,2012-11-17 21:35:00
4:55 PM,53.6,46.4,77,30.31,10.0,North,10.4,-,0.00,,Overcast,360,2012-11-17 21:55:00
5:15 PM,53.6,46.4,77,30.31,10.0,North,11.5,16.1,0.00,,Overcast,10,2012-11-17 22:15:00
5:35 PM,53.6,44.6,72,30.31,10.0,North,9.2,16.1,0.00,,Overcast,10,2012-11-17 22:35:00
5:55 PM,53.6,44.6,72,30.31,10.0,North,9.2,-,0.00,,Overcast,360,2012-11-17 22:55:00
6:15 PM,53.6,46.4,77,30.31,10.0,North,10.4,17.3,0.00,,Overcast,10,2012-11-17 23:15:00
6:55 PM,53.6,46.4,77,30.32,10.0,North,9.2,-,0.00,,Overcast,360,2012-11-17 23:55:00
7:15 PM,53.6,46.4,77,30.32,10.0,North,9.2,-,0.00,,Overcast,10,2012-11-18 00:15:00
7:35 PM,55.4,46.4,72,30.32,10.0,North,11.5,-,0.00,,Overcast,360,2012-11-18 00:35:00
7:55 PM,55.4,46.4,72,30.32,10.0,North,10.4,17.3,0.00,,Overcast,10,2012-11-18 00:55:00
8:15 PM,55.4,46.4,72,30.32,10.0,North,10.4,-,0.00,,Overcast,360,2012-11-18 01:15:00
8:55 PM,55.4,46.4,72,30.31,10.0,North,11.5,-,0.00,,Overcast,10,2012-11-18 01:55:00
9:15 PM,55.4,46.4,72,30.31,10.0,North,10.4,-,0.00,,Overcast,360,2012-11-18 02:15:00
9:35 PM,55.4,46.4,72,30.32,10.0,North,10.4,17.3,0.00,,Overcast,10,2012-11-18 02:35:00
9:55 PM,55.4,46.4,72,30.31,10.0,North,11.5,18.4,0.00,,Overcast,10,2012-11-18 02:55:00
10:15 PM,55.4,46.4,72,30.30,10.0,North,12.7,-,0.00,,Overcast,10,2012-11-18 03:15:00
10:35 PM,55.4,46.4,72,30.30,10.0,North,9.2,-,0.00,,Overcast,360,2012-11-18 03:35:00
10:55 PM,55.4,46.4,72,30.29,10.0,North,11.5,16.1,0.00,,Overcast,360,2012-11-18 03:55:00
11:15 PM,55.4,46.4,72,30.28,10.0,North,11.5,-,0.00,,Overcast,350,2012-11-18 04:15:00
11:35 PM,55.4,46.4,72,30.29,10.0,North,11.5,18.4,0.00,,Overcast,360,2012-11-18 04:35:00
11:55 PM,55.4,46.4,72,30.29,10.0,North,13.8,24.2,0.00,,Overcast,10,2012-11-18 04:55:00